Weather Roundup
Issued by NWS Chicago, IL

Home | Current Version | Previous Version | Graphics & Text | Print | Product List | Glossary On
Versions: 1 2 3 4 5 6 7 8 9 10 11 12 13 14 15 16 17 18 19 20 21 22 23 24 25 26 27 28 29 30 31 32 33 34 35 36 37 38 39 40 41 42 43 44 45 46 47 48 49 50
539
NZUS59 KLOT 280112
HRRLOT

CHICAGO AREA WEATHER ROUNDUP
NATIONAL WEATHER SERVICE CHICAGO/ROMEOVILLE IL
800 PM CDT TUE SEP 27 2016

NOTE: "FAIR" INDICATES FEW OR NO CLOUDS BELOW 12,000 FEET WITH NO
SIGNIFICANT WEATHER AND/OR OBSTRUCTIONS TO VISIBILITY.

* THESE STATIONS ARE NOT UNDER NWS QUALITY CONTROL. THEY ALSO MAY NOT
  REPORT WEATHER SUCH AS PRECIPITATION OR FOG.

ILZ005-006-012>014-019>023-280200-
NORTHEAST ILLINOIS

CITY           SKY/WX    TMP DP  RH WIND       PRES   REMARKS
OHARE          CLOUDY    63  34  33 W7        29.76S
MIDWAY         MOCLDY    65  32  29 W5        29.77S
AURORA         CLOUDY    57  42  57 CALM      29.77S
LANSING*       PTCLDY    56  38  51 CALM      29.78S
JOLIET*        MOCLDY    54  45  71 CALM      29.78R
WAUKEGAN       MOCLDY    57  46  66 N5        29.77R
DUPAGE AIRPORT CLOUDY    60  36  40 SW3       29.76S
WHEELING       CLOUDY    62  36  37 NE3       29.78R
KANKAKEE*      PTCLDY    58  38  46 CALM      29.79S
MORRIS*        MOCLDY    59  38  45 CALM      29.76S
LEWIS AIRPORT* PTCLDY    58  41  54 CALM      29.77S
NORTHERLY ISL    N/A     66  30  26 W9          N/A
$$

WIZ051-052-058>065-066-070>072-280200-
SOUTHEAST WISCONSIN

CITY           SKY/WX    TMP DP  RH WIND       PRES   REMARKS
MILWAUKEE      CLOUDY    55  47  74 W7        29.79R
KENOSHA*       CLOUDY    55  46  71 N8        29.79R
RACINE*        CLOUDY    54  47  77 NW3       29.79R
BURLINGTON     CLOUDY    52  45  76 N7        29.79R
WAUKESHA       LGT RAIN  48  46  93 NW7       29.78S
WEST BEND      DRIZZLE   50  46  87 W6        29.77R
$$

INZ001>003-010>013-019-020-280200-
NORTHWEST INDIANA

CITY           SKY/WX    TMP DP  RH WIND       PRES   REMARKS
GARY*          MOCLDY    55  45  67 SW6       29.78R
MICHIGAN CITY* NOT AVBL
RENSSELAER*    NOT AVBL
VALPARAISO     PTCLDY    61  33  35 W3        29.79R
$$

LMZ740>746-280200-
SOUTHERN LAKE MICHIGAN

STATION/POSITION TIME  SKY/WX   TEMP WIND        PRES    VSBY
                                AIR  DIR/SP/G
                 (UTC)          (F)  (DEG/KT/KT) (MB)    (MI)
HARRISON CRIB    0040            67  270/ 10/ 12   N/A
BURNHAM HARBOR   0100            66  250/  5/ 12   N/A
CALUMET HARBOR   0042            65  260/  3/  5 1007.7S
BURNS HARBOR     0040            67  280/ 12/ 17 1008.8R
MICHIGAN CITY    0040            67  250/ 23/ 25   N/A
$$

ABBREVIATIONS USED IN REMARKS
   TC - TEMPERATURE IN CELSIUS
  WCI - WIND CHILL INDEX
   HX - HEAT INDEX
  VSB - VISIBILITY
$$




USA.gov is the U.S. government's official web portal to all federal, state and local government web resources and services.